Waarnemingen

Advertentie
Mijn weer
Saarbrücken-Ensheim, Duitsland (10708): temperatuur & dauwpunt: 11.12.2017 20:00:00 - 17.12.2017 20:00:00 (CET)Saarbrücken-Ensheim, Duitsland (10708): temperatuur 5cm & temperatuur -5cm: 11.12.2017 20:00:00 - 17.12.2017 20:00:00 (CET)Saarbrücken-Ensheim, Duitsland (10708): temperatuur -20cm & temperatuur -100cm: 11.12.2017 20:00:00 - 17.12.2017 20:00:00 (CET)Saarbrücken-Ensheim, Duitsland (10708): windsnelheid & windstoten: 11.12.2017 20:00:00 - 17.12.2017 20:00:00 (CET)Saarbrücken-Ensheim, Duitsland (10708): windrichting: 11.12.2017 20:00:00 - 17.12.2017 20:00:00 (CET)Saarbrücken-Ensheim, Duitsland (10708): luchtdruk: 11.12.2017 20:00:00 - 17.12.2017 20:00:00 (CET)Saarbrücken-Ensheim, Duitsland (10708): zicht: 11.12.2017 20:00:00 - 17.12.2017 20:00:00 (CET)Saarbrücken-Ensheim, Duitsland (10708): Zonneschijnduur: 11.12.2017 20:00:00 - 17.12.2017 20:00:00 (CET)Saarbrücken-Ensheim, Duitsland (10708): neerslag: 11.12.2017 20:00:00 - 17.12.2017 20:00:00 (CET)
Datum & Tijd tt [°C] td [°C] tt 5cm [°C] tt -5cm [°C] tt -20cm [°C] tt -100cm [°C] ff [km/u] ff [kn] fx [km/u] fx [kn] dd ppp [hPa] vv [km] sd [min] rr [mm]
17.12.2017 20:00:00 0,8 -0,5 0,7 1,5 2,6 6,7 11 6 16 9 WZW 1027,8 10 0 0,0
17.12.2017 19:00:00 0,8 -0,7 0,6 1,5 2,6 6,7 10 5 15 8 ZW 1027,9 14 0 0,0
17.12.2017 18:00:00 0,9 -0,8 0,6 1,6 2,6 6,7 9 5 15 8 WZW 1028,0 10 0 0,0
17.12.2017 17:00:00 0,9 -1,0 0,7 1,7 2,6 6,7 9 5 13 7 WZW 1027,7 18 0 0,0
17.12.2017 16:00:00 0,8 -0,9 0,8 1,8 2,6 6,7 11 6 18 10 WZW 1027,1 10 0 0,0
17.12.2017 15:00:00 0,8 -1,1 0,9 1,8 2,5 6,7 15 8 18 10 W 1026,4 10 0 0,0
17.12.2017 14:00:00 0,6 -1,4 0,7 1,6 2,5 6,7 13 7 18 10 W 1026,3 15 0 0,0
17.12.2017 13:00:00 0,5 -1,3 0,9 1,2 2,5 6,7 10 6 18 10 WZW 1026,4 15 0 0,0
17.12.2017 12:00:00 0,0 -1,4 0,2 0,9 2,5 6,7 15 8 21 11 WZW 1026,3 10 0 0,0
17.12.2017 11:00:00 -0,2 -1,7 -0,1 0,9 2,5 6,7 11 6 16 9 WZW 1026,4 10 0 0,0
17.12.2017 10:00:00 -0,3 -1,3 -0,3 0,9 2,6 6,7 9 5 18 10 W 1026,0 9 0 0,0
17.12.2017 09:00:00 -0,5 -1,6 -0,7 0,9 2,6 6,7 10 5 15 8 WZW 1024,9 8 0 0,0
17.12.2017 08:00:00 -0,7 -1,6 -0,9 1,0 2,7 6,7 8 4 15 8 W 1024,3 10 0 0,0
17.12.2017 07:00:00 -0,6 -1,9 -1,1 1,0 2,7 6,7 8 4 12 6 WZW 1023,6 15 0 0,0
17.12.2017 06:00:00 -0,5 -1,8 -1,1 1,1 2,8 6,7 9 5 14 8 W 1023,2 10 0 0,0
17.12.2017 05:00:00 -0,6 -1,6 -1,8 1,2 2,9 6,7 11 6 18 10 W 1022,7 12 0 0,0
17.12.2017 04:00:00 0,3 -0,9 -0,4 1,5 3,0 6,7 13 7 22 12 W 1022,3 12 0 0,0
17.12.2017 03:00:00 1,0 -0,4 0,8 1,7 3,0 6,7 16 9 22 12 W 1021,8 15 0 0,0
17.12.2017 02:00:00 1,1 -0,2 0,7 1,8 3,0 6,7 15 8 22 12 W 1021,0 10 0 0,0
17.12.2017 01:00:00 1,3 0,0 0,9 1,8 3,1 6,7 14 8 24 13 W 1021,0 15 0 0,0
17.12.2017 00:00:00 1,6 0,3 1,2 2,0 3,1 6,7 17 9 26 14 W 1020,8 18 0 0,0
16.12.2017 23:00:00 1,6 0,4 1,3 2,0 3,1 6,7 15 8 22 12 W 1020,1 10 0 0,0
16.12.2017 22:00:00 1,6 0,7 1,4 1,9 3,2 6,7 13 7 18 10 W 1019,7 12 0 0,0
16.12.2017 21:00:00 1,6 0,5 1,2 1,8 3,2 6,7 11 6 16 9 WZW 1019,1 10 0 0,0
16.12.2017 20:00:00 1,5 0,4 0,8 1,9 3,3 6,7 10 6 21 11 W 1018,5 15 0 0,0
16.12.2017 19:00:00 1,7 0,5 0,9 2,2 3,4 6,7 13 7 22 12 W 1017,9 10 0 0,0
16.12.2017 18:00:00 1,8 0,5 0,7 2,6 3,5 6,7 11 6 18 10 W 1017,0 10 0 0,1
16.12.2017 17:00:00 2,7 0,3 2,2 3,0 3,5 6,7 9 5 22 12 W 1016,1 25 0 0,0
16.12.2017 16:00:00 2,9 0,5 2,2 3,3 3,4 6,7 13 7 16 9 WZW 1015,4 10 12 0,0
16.12.2017 15:00:00 3,1 0,5 3,1 3,5 3,4 6,7 10 6 16 9 W 1014,6 20 0 0,0
16.12.2017 14:00:00 2,7 0,5 2,7 3,4 3,3 6,7 14 8 23 12 W 1014,3 15 6 0,0
16.12.2017 13:00:00 2,3 1,0 2,2 3,2 3,2 6,7 12 6 25 14 WNW 1013,7 8 1 0,0
16.12.2017 12:00:00 2,4 1,0 2,4 3,0 3,1 6,7 14 8 24 13 WNW 1013,0 8 0 0,0
16.12.2017 11:00:00 2,3 1,2 2,7 2,5 3,1 6,7 13 7 16 9 W 1012,6 10 2 0,0
16.12.2017 10:00:00 1,8 1,0 1,7 2,1 3,1 6,7 11 6 18 10 WNW 1011,4 15 0 0,0
16.12.2017 09:00:00 1,7 0,9 1,4 2,1 3,1 6,7 7 4 11 6 WNW 1010,1 20 0 0,0
16.12.2017 08:00:00 1,8 1,0 1,4 2,2 3,1 6,7 6 4 10 6 NW 1008,8 25 0 0,0
16.12.2017 07:00:00 2,1 1,0 1,8 2,3 3,1 6,7 9 5 18 10 NNW 1007,7 10 0 0,0
16.12.2017 06:00:00 2,0 1,8 1,9 2,3 3,1 6,7 7 4 10 5 WNW 1006,6 2,0 0 0,0
16.12.2017 05:00:00 1,9 1,6 1,8 2,3 3,1 6,7 8 4 11 6 NW 1005,7 5 0 0,0
16.12.2017 04:00:00 1,8 1,5 1,7 2,2 3,1 6,7 6 4 9 5 WNW 1005,0 1,2 0 0,0
16.12.2017 03:00:00 1,6 1,4 1,3 2,3 3,2 6,7 4 2 5 3 WZW 1003,9 7 0 0,0
16.12.2017 02:00:00 1,5 1,0 1,5 2,2 3,2 6,7 4 2 5 3 WNW 1003,1 8 0 0,2
16.12.2017 01:00:00 1,2 0,6 1,2 2,2 3,2 6,8 0 0 5 3 N 1002,7 8 0 0,6
16.12.2017 00:00:00 0,8 0,5 0,7 2,3 3,3 6,8 6 3 15 8 NW 1002,3 8 0 1,3
15.12.2017 23:00:00 1,6 1,0 1,1 2,7 3,3 6,8 12 6 26 14 WZW 1001,6 8 0 1,2
15.12.2017 22:00:00 3,0 2,2 2,7 2,7 3,3 6,8 11 6 28 15 ZW 1000,8 6 0 1,7
15.12.2017 21:00:00 3,1 2,3 2,7 2,7 3,3 6,8 8 5 13 7 Z 1000,4 15 0 0,0
15.12.2017 20:00:00 3,0 2,1 2,6 2,7 3,3 6,8 8 4 25 13 Z 999,9 13 0 0,4
15.12.2017 19:00:00 3,2 1,7 2,7 2,6 3,3 6,8 13 7 18 10 ZZW 999,4 10 0 0,1
15.12.2017 18:00:00 3,1 1,5 2,5 2,7 3,3 6,8 11 6 24 13 ZZW 999,2 10 0 0,0
15.12.2017 17:00:00 3,5 1,0 2,7 3,0 3,3 6,8 13 7 28 15 ZW 999,0 10 0 0,0
15.12.2017 16:00:00 3,8 0,9 2,7 3,1 3,3 6,8 16 8 29 16 ZW 998,8 25 11 0,0
15.12.2017 15:00:00 3,6 1,9 3,3 3,3 3,2 6,8 24 13 40 22 WZW 998,8 30 0 0,2
15.12.2017 14:00:00 3,6 0,4 3,4 3,1 3,1 6,8 29 16 49 26 WZW 998,7 45 22 0,0
15.12.2017 13:00:00 3,6 1,4 3,7 2,8 3,0 6,8 31 17 46 25 WZW 998,5 10 4 0,0
15.12.2017 12:00:00 1,9 1,0 1,9 2,4 2,9 6,8 28 15 51 27 ZW 998,2 10 0 0,6
15.12.2017 11:00:00 2,5 1,5 2,3 2,3 2,9 6,8 26 14 42 23 ZW 997,5 12 0 0,6
15.12.2017 10:00:00 2,3 1,5 2,2 2,0 2,9 6,8 26 14 42 23 ZZW 997,2 15 0 0,2
15.12.2017 09:00:00 1,6 0,9 1,5 1,9 2,9 6,8 22 12 37 20 ZZW 997,0 10 0 0,9
15.12.2017 08:00:00 1,7 0,8 1,4 1,9 2,9 6,8 19 10 29 16 ZZW 997,0 8 0 0,3
15.12.2017 07:00:00 2,3 0,2 1,8 1,9 2,9 6,8 21 11 35 19 ZW 997,0 10 0 0,0
15.12.2017 06:00:00 2,3 0,4 1,7 1,9 2,9 6,8 27 15 36 20 WZW 996,8 40 0 0,0
15.12.2017 05:00:00 1,9 0,8 1,6 1,8 3,0 6,8 19 10 29 16 ZW 996,9 40 0 0,0
15.12.2017 04:00:00 2,2 0,6 1,6 1,7 3,0 6,8 21 11 45 24 WZW 996,3 30 0 0,0
15.12.2017 03:00:00 1,5 0,4 0,7 1,6 3,1 6,8 23 12 38 21 WZW 995,6 30 0 0,1
15.12.2017 02:00:00 0,6 0,1 0,1 1,9 3,2 6,8 18 10 34 18 WZW 994,7 5 0 1,9
15.12.2017 01:00:00 1,7 0,8 0,9 2,3 3,3 6,8 31 17 42 23 WZW 994,0 7 0 3,6
15.12.2017 00:00:00 3,0 2,1 2,7 2,8 3,3 6,8 18 10 38 21 W 993,5 6 0 0,4
14.12.2017 23:00:00 3,3 2,2 2,9 2,7 3,3 6,8 18 10 29 16 ZZW 993,6 10 0 0,1
14.12.2017 22:00:00 3,1 2,1 2,8 2,7 3,3 6,8 22 12 34 18 ZZW 994,6 10 0 0,0
14.12.2017 21:00:00 2,9 1,9 2,6 2,6 3,3 6,9 19 10 26 14 ZW 994,9 35 0 0,0
14.12.2017 20:00:00 2,5 1,9 2,3 2,5 3,3 6,9 13 7 24 13 ZZW 995,8 25 0 0,1
14.12.2017 19:00:00 1,6 0,9 1,3 2,6 3,4 6,9 9 5 19 10 W 996,9 12 0 1,1
14.12.2017 18:00:00 1,8 0,7 1,4 2,8 3,4 6,9 15 8 36 20 WZW 997,7 15 0 0,3
14.12.2017 17:00:00 2,6 0,7 2,0 3,2 3,4 6,9 29 15 51 27 ZW 998,4 25 0 0,1
14.12.2017 16:00:00 4,5 1,1 3,8 3,5 3,3 6,9 26 14 48 26 ZW 998,2 30 0 0,1
14.12.2017 15:00:00 4,6 1,1 3,4 3,6 3,2 6,9 29 16 46 25 ZW 998,9 25 0 0,1
14.12.2017 14:00:00 4,8 1,0 4,2 3,7 3,1 6,9 36 20 56 30 WZW 999,6 25 0 0,0
14.12.2017 13:00:00 4,9 0,5 4,7 3,5 3,0 6,9 37 20 58 31 WZW 1000,5 30 3 0,0
14.12.2017 12:00:00 4,6 0,6 4,5 3,0 2,9 6,9 37 20 57 31 WZW 1001,7 10 0 0,0
14.12.2017 11:00:00 4,3 0,7 4,5 2,3 2,8 6,9 33 18 46 25 WZW 1002,4 30 23 0,0
14.12.2017 10:00:00 3,4 0,0 2,8 2,0 2,8 6,9 31 17 57 31 WZW 1002,2 40 16 0,0
14.12.2017 09:00:00 3,3 0,0 2,6 1,9 2,9 6,9 31 17 52 28 WZW 1001,9 10 0 0,0
14.12.2017 08:00:00 3,2 -0,3 2,1 2,0 2,9 6,9 31 17 61 33 WZW 1001,5 10 0 0,0
14.12.2017 07:00:00 3,7 -0,6 2,9 2,1 2,9 6,9 38 21 61 33 W 1000,5 40 0 0,0
14.12.2017 06:00:00 3,7 -0,2 2,8 2,3 2,9 6,9 40 22 73 39 W 999,4 40 0 0,0
14.12.2017 05:00:00 4,3 0,8 3,0 2,8 2,8 6,9 39 21 85 46 W 997,6 40 0 1,7
14.12.2017 04:00:00 4,9 3,9 4,4 2,8 2,8 6,9 71 38 93 50 WZW 996,3 2,0 0 1,1
14.12.2017 03:00:00 5,0 3,0 4,1 2,6 2,7 6,9 20 11 41 22 WZW 995,6 50 0 0,0
14.12.2017 02:00:00 5,1 3,9 4,3 2,7 2,5 6,9 28 15 41 22 WZW 996,6 10 0 0,0
14.12.2017 01:00:00 5,1 3,9 4,3 2,6 2,4 7,0 29 16 55 30 WZW 995,7 40 0 1,0
14.12.2017 00:00:00 4,8 3,8 4,3 2,2 2,2 7,0 35 19 68 37 ZW 995,3 15 0 0,7
13.12.2017 23:00:00 4,5 3,4 4,0 1,6 2,2 7,0 39 21 61 33 ZW 995,6 8 0 1,6
13.12.2017 22:00:00 3,7 2,9 3,2 0,8 2,2 7,0 39 21 62 34 ZZW 997,1 8 0 1,5
13.12.2017 21:00:00 3,5 2,5 2,8 0,7 2,2 7,0 35 19 57 31 ZZW 999,0 10 0 0,6
13.12.2017 20:00:00 3,1 2,1 2,4 0,8 2,3 7,0 35 19 55 30 ZW 1001,0 20 0 0,1
13.12.2017 19:00:00 2,5 1,7 1,8 0,8 2,3 7,0 32 17 51 27 ZW 1003,2 20 0 0,1
13.12.2017 18:00:00 2,0 1,2 1,4 0,8 2,3 7,0 31 17 48 26 ZW 1004,4 10 0 0,4
13.12.2017 17:00:00 1,6 0,8 1,0 0,8 2,3 7,0 35 19 53 28 ZW 1005,1 15 0 0,5
13.12.2017 16:00:00 0,8 0,2 0,1 0,8 2,4 7,0 35 19 55 30 ZW 1005,6 4,0 0 1,1
13.12.2017 15:00:00 0,3 -0,2 0,0 0,8 2,4 7,0 29 16 44 24 ZZW 1006,5 5 0 2,2
13.12.2017 14:00:00 0,2 -0,3 0,0 0,9 2,4 7,0 26 14 57 31 ZZW 1008,2 0,9 0 2,0
13.12.2017 13:00:00 3,0 -1,4 2,7 0,9 2,4 7,0 24 13 40 21 ZZW 1009,6 25 0 0,0
13.12.2017 12:00:00 2,8 -1,3 2,7 0,7 2,4 7,0 26 14 44 24 ZZW 1011,1 10 10 0,0
13.12.2017 11:00:00 2,1 -1,2 2,2 0,7 2,4 7,0 26 14 44 24 ZZW 1012,6 25 59 0,0
13.12.2017 10:00:00 0,8 -1,3 0,0 0,7 2,5 7,0 21 11 37 20 ZZW 1013,7 25 21 0,0
13.12.2017 09:00:00 0,1 -1,6 -0,6 0,7 2,5 7,0 20 11 28 15 ZZW 1014,7 17 7 0,0
13.12.2017 08:00:00 -0,4 -1,8 -1,6 0,7 2,6 7,0 10 6 18 10 ZZW 1015,9 15 0 0,0
13.12.2017 07:00:00 -0,7 -1,9 -1,8 0,8 2,6 7,0 12 7 22 12 Z 1016,6 35 0 0,0
13.12.2017 06:00:00 -0,5 -1,8 -1,7 0,9 2,7 7,0 14 7 22 12 ZZW 1016,8 45 0 0,0
13.12.2017 05:00:00 -0,4 -1,9 -1,4 0,9 2,7 7,0 16 9 26 14 ZZW 1017,4 25 0 0,0
13.12.2017 04:00:00 0,1 -1,5 -0,4 1,0 2,7 7,0 18 10 29 16 ZZW 1017,8 25 0 0,0
13.12.2017 03:00:00 0,0 -1,0 -0,5 1,0 2,8 7,0 16 9 24 13 ZZW 1018,3 10 0 0,0
13.12.2017 02:00:00 0,1 -0,9 -0,6 1,0 2,8 7,0 16 8 21 11 ZW 1018,2 20 0 0,0
13.12.2017 01:00:00 0,4 -0,8 -0,8 1,1 2,9 7,0 16 9 23 12 ZW 1018,6 20 0 0,0
13.12.2017 00:00:00 0,6 -0,3 0,3 1,2 2,9 7,0 17 9 29 16 ZW 1018,7 12 0 0,0
12.12.2017 23:00:00 0,4 -0,2 0,1 1,2 3,0 7,0 16 9 24 13 ZZW 1018,2 10 0 0,0
12.12.2017 22:00:00 0,2 -0,4 -0,1 1,2 3,1 7,0 12 7 18 10 ZW 1018,4 9 0 0,0
12.12.2017 21:00:00 0,3 -0,5 -0,1 1,3 3,2 7,0 14 7 18 10 ZW 1018,0 22 0 0,0
12.12.2017 20:00:00 0,0 -0,7 -0,7 1,3 3,3 7,0 11 6 16 9 ZZW 1017,6 10 0 0,0
12.12.2017 19:00:00 -0,4 -1,1 -1,7 1,5 3,4 7,0 13 7 37 20 WZW 1016,8 25 0 0,2
12.12.2017 18:00:00 0,0 -0,8 -1,1 1,8 3,5 7,0 13 7 35 19 WZW 1016,2 30 0 0,0
12.12.2017 17:00:00 1,1 -1,3 0,7 2,1 3,6 7,0 21 11 31 17 WZW 1015,2 10 0 0,0
12.12.2017 16:00:00 2,7 -2,6 1,7 2,8 3,6 7,0 18 10 32 17 WZW 1013,9 10 20 0,0
12.12.2017 15:00:00 2,7 -2,3 3,1 2,8 3,6 7,0 19 10 31 17 W 1013,1 40 3 0,0
12.12.2017 14:00:00 2,6 -1,9 2,7 3,1 3,5 7,0 21 11 36 20 WZW 1012,6 10 0 0,0
12.12.2017 13:00:00 2,5 -1,6 2,8 3,0 3,5 7,0 24 13 40 22 WZW 1011,7 40 1 0,0
12.12.2017 12:00:00 2,5 -1,6 2,5 2,9 3,4 7,0 24 13 41 22 W 1011,1 10 1 0,0
12.12.2017 11:00:00 2,3 0,0 2,5 2,4 3,4 7,0 26 14 39 21 WZW 1010,0 10 11 0,0
12.12.2017 10:00:00 1,7 -0,1 1,6 1,7 3,4 7,0 24 13 31 17 WZW 1009,0 10 11 0,0
12.12.2017 09:00:00 1,1 -0,5 0,6 1,5 3,5 7,0 21 11 30 16 WZW 1008,2 10 0 0,0
12.12.2017 08:00:00 1,4 -1,3 0,7 1,7 3,7 7,0 22 12 37 20 WZW 1006,6 10 0 0,0
12.12.2017 07:00:00 1,7 -1,3 1,2 2,1 3,7 7,0 26 14 42 23 WZW 1005,1 50 0 0,0
12.12.2017 06:00:00 1,7 -1,7 1,4 2,1 3,9 7,0 34 18 47 25 WZW 1003,1 10 0 0,0
12.12.2017 05:00:00 1,5 -1,9 1,2 2,2 4,0 7,0 29 16 58 31 W 1000,4 10 0 0,0
12.12.2017 04:00:00 0,9 -1,8 0,7 2,4 4,1 7,0 37 20 59 32 W 998,0 10 0 0,0
12.12.2017 03:00:00 0,8 -1,9 0,6 2,8 4,3 7,0 44 24 68 37 W 996,0 10 0 0,0
12.12.2017 02:00:00 1,8 -1,5 1,6 3,3 4,4 7,0 35 19 67 36 W 993,2 40 0 0,0
12.12.2017 01:00:00 3,9 0,2 3,3 3,7 4,4 7,0 41 22 61 33 ZW 990,7 10 0 0,0
12.12.2017 00:00:00 4,6 0,4 3,9 3,8 4,5 7,0 34 18 56 30 ZW 989,0 10 0 0,0
11.12.2017 23:00:00 4,8 0,4 3,7 4,3 4,6 7,0 34 18 57 31 ZW 987,5 10 0 0,0
11.12.2017 22:00:00 5,4 2,8 4,7 4,6 4,6 7,1 26 14 57 31 ZW 985,7 40 0 0,2
11.12.2017 21:00:00 5,9 3,8 5,0 4,8 4,6 7,1 34 18 57 31 ZW 984,7 9 0 0,5
11.12.2017 20:00:00 7,6 2,7 7,1 4,8 4,6 7,1 29 16 55 30 ZZW 982,6 50 0 0,0

tt = temperatuur
td = dauwpunt
tt 5cm = temperatuur 5cm
tt -5cm = temperatuur -5cm
tt -20cm = temperatuur -20cm
tt -100cm = temperatuur -100cm
ff = windsnelheid
fx = windstoten
dd = windrichting
ppp = luchtdruk
vv = zicht
sd = Zonneschijnduur
rr = neerslag

Weerstations in de omgeving